VA7IM-13 Weather Reports


Display with metric or nautical units.
time (UTC)temp
F
wind
direction
speed
MPH
gust
MPH
rain 1hr
in
rain 24hr
in
rain mn
in
humidity
%
barometer
mb
20260503190659 77 4.0 8.0 0.00 0.00 0.00
20260503190158 78 0 4.0 6.0 0.00 0.00 0.00
20260503185657 76 225 6.0 9.0 0.00 0.00 0.00
20260503185157 77 225 5.0 6.0 0.00 0.00 0.00
20260503184657 0 4.0 5.0 0.00 0.00 0.00
20260503184159 74 113 6.0 8.0 0.00 0.00 0.00
20260503183658 0 6.0 9.0 0.00 0.00 0.00
20260503182159 0 225 3.0 3.0 0.00 0.00 0.00
20260503174159 75 0.0 0.0 0.00 0.00 0.00
20260503160158 67 4.0 4.0 0.00 0.00 0.00
20260503140157 52 158 0.0 0.0 0.00 0.00 0.00
20260503131159 51 158 0.0 0.0 0.00 0.00 0.00
20260503130659 51 113 0.0 0.0 0.00 0.00 0.00
20260503130158 52 203 0.0 0.0 0.00 0.00 0.00
20260503120159 0 0.0 0.0 0.00 0.00 0.00
20260503110657 0 0.0 0.0 0.00 0.00 0.00
20260503110157 53 90 0.0 0.0 0.00 0.00 0.00
20260503100159 54 180 0.0 0.0 0.00 0.00 0.00
20260503090201 56 180 0.0 0.0 0.00 0.00 0.00
20260503081158 57 113 0.0 0.0 0.00 0.00 0.00
20260503080657 57 113 0.0 0.0 0.00 0.00 0.00
20260503080158 58 158 0.0 0.0 0.00 0.00 0.00
20260503072657 58 45 0.0 2.0 0.00 0.00 0.00
20260503072158 58 90 0.0 0.0 0.00 0.00 0.00
20260503071657 58 135 0.0 0.0 0.00 0.00 0.00
20260503071158 58 158 0.0 0.0 0.00 0.00 0.00
20260503070659 59 113 0.0 0.0 0.00 0.00 0.00
20260503070158 59 135 0.0 0.0 0.00 0.00 0.00
20260503060157 59 225 0.0 0.0 0.00 0.00 0.00
20260503054657 60 203 0.0 0.0 0.00 0.00 0.00
20260503054158 60 180 0.0 0.0 0.00 0.00 0.00
20260503053659 61 135 0.0 0.0 0.00 0.00 0.00
20260503053158 61 113 0.0 0.0 0.00 0.00 0.00
20260503052657 61 135 0.0 0.0 0.00 0.00 0.00
20260503052157 61 113 0.0 0.0 0.00 0.00 0.00
20260503051658 61 90 0.0 0.0 0.00 0.00 0.00
20260503051159 61 113 0.0 0.0 0.00 0.00 0.00
20260503050659 0 0.0 0.0 0.00 0.00 0.00
20260503050157 62 135 0.0 0.0 0.00 0.00 0.00
20260503045658 62 158 0.0 0.0 0.00 0.00 0.00
20260503045159 62 90 0.0 0.0 0.00 0.00 0.00
20260503044159 63 158 0.0 0.0 0.00 0.00 0.00
20260503043659 64 135 0.0 0.0 0.00 0.00 0.00
20260503043158 64 158 0.0 0.0 0.00 0.00 0.00
20260503042658 64 90 0.0 0.0 0.00 0.00 0.00
20260503042159 65 90 0.0 0.0 0.00 0.00 0.00
20260503041659 65 113 0.0 0.0 0.00 0.00 0.00
20260503041158 65 90 1.0 4.0 0.00 0.00 0.00
20260503040657 66 113 1.0 2.0 0.00 0.00 0.00
20260503040157 66 90 2.0 4.0 0.00 0.00 0.00
20260503035657 66 45 1.0 2.0 0.00 0.00 0.00
20260503035157 67 45 2.0 3.0 0.00 0.00 0.00
20260503034657 68 68 0.0 0.0 0.00 0.00 0.00
20260503034157 68 180 0.0 0.0 0.00 0.00 0.00
20260503033658 69 180 0.0 0.0 0.00 0.00 0.00
20260503033159 69 90 0.0 0.0 0.00 0.00 0.00
20260503032659 70 113 3.0 5.0 0.00 0.00 0.00
20260503032157 70 315 4.0 6.0 0.00 0.00 0.00
20260503031657 0 3.0 4.0 0.00 0.00 0.00
20260503031157 71 135 4.0 6.0 0.00 0.00 0.00
20260503030658 71 23 4.0 7.0 0.00 0.00 0.00
20260503025658 72 270 6.0 13.0 0.00 0.00 0.00
20260503025159 72 225 5.0 8.0 0.00 0.00 0.00
20260503024659 0 5.0 5.0 0.00 0.00 0.00
20260503022657 75 113 4.0 4.0 0.00 0.00 0.00
20260503022158 77 4.0 4.0 0.00 0.00 0.00
20260503021659 78 113 4.0 4.0 0.00 0.00 0.00
20260503021159 78 0.0 0.0 0.00 0.00 0.00
20260503015659 78 2.0 2.0 0.00 0.00 0.00
20260503014658 0 90 5.0 5.0 0.00 0.00 0.00
20260503013157 79 3.0 3.0 0.00 0.00 0.00
20260503012658 80 203 5.0 9.0 0.00 0.00 0.00
20260503012159 0 203 3.0 3.0 0.00 0.00 0.00
20260503011657 79 5.0 5.0 0.00 0.00 0.00
20260503011157 80 338 6.0 9.0 0.00 0.00 0.00
20260503010658 80 8.0 8.0 0.00 0.00 0.00
20260503010159 80 293 4.0 6.0 0.00 0.00 0.00
20260503005658 80 8.0 8.0 0.00 0.00 0.00
20260503002158 0 23 9.0 9.0 0.00 0.00 0.00
20260503000159 81 180 12.0 14.0 0.00 0.00 0.00
20260502232159 82 6.0 6.0 0.00 0.00 0.00
20260502231158 83 8.0 8.0 0.00 0.00 0.00
20260502225658 0 6.0 9.0 0.00 0.00 0.00
20260502225159 82 270 4.0 5.0 0.00 0.00 0.00
20260502223658 0 248 4.0 4.0 0.00 0.00 0.00
20260502222158 81 203 4.0 8.0 0.00 0.00 0.00
20260502221658 81 90 6.0 8.0 0.00 0.00 0.00
20260502221158 82 225 2.0 5.0 0.00 0.00 0.00
20260502220657 81 338 6.0 9.0 0.00 0.00 0.00
20260502220158 80 135 4.0 5.0 0.00 0.00 0.00
20260502215659 80 23 4.0 5.0 0.00 0.00 0.00
20260502215159 81 180 6.0 9.0 0.00 0.00 0.00
20260502214659 80 113 4.0 5.0 0.00 0.00 0.00
20260502214159 0 2.0 4.0 0.00 0.00 0.00
20260502213658 0 68 4.0 4.0 0.00 0.00 0.00
20260502205659 80 270 3.0 5.0 0.00 0.00 0.00
20260502205159 0 4.0 4.0 0.00 0.00 0.00
20260502204657 79 45 3.0 5.0 0.00 0.00 0.00
20260502200659 0 270 3.0 3.0 0.00 0.00 0.00
20260502193159 0 270 7.0 10.0 0.00 0.00 0.00
20260502192659 73 225 6.0 10.0 0.00 0.00 0.00
20260502192158 76 270 5.0 7.0 0.00 0.00 0.00
20260502191658 74 180 6.0 9.0 0.00 0.00 0.00
20260502191159 71 225 4.0 8.0 0.00 0.00 0.00